Previsão horária em Junqueirópolis

Hoje, 22 Junho, Terça-feira

Tempo Temperatura Precipitação Vento Pressão Humidade
00:00 +23°C° 0 mm 2 m/s 728 mmHg 60%
01:00 +22°C° 0 mm 1 m/s 727 mmHg 62%
02:00 +21°C° 0 mm 1 m/s 727 mmHg 65%
03:00 +19°C° 0 mm 0 m/s 727 mmHg 68%
04:00 +20°C° 0 mm 1 m/s 727 mmHg 69%
05:00 +20°C° 0 mm 1 m/s 727 mmHg 70%
06:00 +19°C° 0 mm 2 m/s 728 mmHg 70%
07:00 +20°C° 0 mm 2 m/s 728 mmHg 67%
08:00 +21°C° 0 mm 2 m/s 729 mmHg 63%
09:00 +22°C° 0 mm 3 m/s 729 mmHg 60%
10:00 +24°C° 0 mm 3 m/s 729 mmHg 55%
11:00 +26°C° 0 mm 2 m/s 729 mmHg 50%
12:00 +28°C° 0 mm 2 m/s 729 mmHg 45%
13:00 +29°C° 0 mm 2 m/s 729 mmHg 44%
14:00 +29°C° 0 mm 2 m/s 728 mmHg 43%
15:00 +30°C° 0 mm 2 m/s 728 mmHg 42%
16:00 +28°C° 0 mm 2 m/s 728 mmHg 48%
17:00 +26°C° 0 mm 3 m/s 728 mmHg 54%
18:00 +24°C° 0 mm 3 m/s 727 mmHg 60%
19:00 +24°C° 0 mm 3 m/s 728 mmHg 62%
20:00 +22°C° 0 mm 3 m/s 728 mmHg 65%
21:00 +21°C° 0 mm 3 m/s 728 mmHg 68%
22:00 +21°C° 0 mm 3 m/s 728 mmHg 70%
23:00 +21°C° 0 mm 4 m/s 728 mmHg 72%

Amanhã, 23 Junho, Quarta-feira

Tempo Temperatura Precipitação Vento Pressão Humidade
00:00 +20°C° 0 mm 4 m/s 728 mmHg 74%
01:00 +20°C° 0 mm 4 m/s 728 mmHg 74%
02:00 +20°C° 0 mm 4 m/s 728 mmHg 75%
03:00 +20°C° 0 mm 5 m/s 727 mmHg 75%
04:00 +19°C° 0 mm 5 m/s 728 mmHg 76%
05:00 +19°C° 0 mm 5 m/s 728 mmHg 78%
06:00 +17°C° 0 mm 5 m/s 728 mmHg 80%
07:00 +19°C° 0 mm 5 m/s 728 mmHg 75%
08:00 +20°C° 0 mm 6 m/s 729 mmHg 70%
09:00 +20°C° 0 mm 6 m/s 729 mmHg 66%
10:00 +22°C° 0 mm 6 m/s 729 mmHg 58%
11:00 +26°C° 0 mm 6 m/s 729 mmHg 51%
12:00 +28°C° 0 mm 5 m/s 729 mmHg 44%
13:00 +29°C° 0 mm 5 m/s 729 mmHg 41%
14:00 +30°C° 0 mm 5 m/s 728 mmHg 39%
15:00 +30°C° 0 mm 4 m/s 727 mmHg 37%
16:00 +29°C° 0 mm 4 m/s 727 mmHg 41%
17:00 +27°C° 0 mm 4 m/s 727 mmHg 45%
18:00 +25°C° 0 mm 3 m/s 727 mmHg 50%
19:00 +25°C° 0 mm 4 m/s 727 mmHg 51%
20:00 +23°C° 0 mm 4 m/s 727 mmHg 53%
21:00 +22°C° 0 mm 4 m/s 727 mmHg 55%
22:00 +21°C° 0 mm 5 m/s 727 mmHg 56%
23:00 +21°C° 0 mm 5 m/s 727 mmHg 56%

Depois de amanhã, 24 Junho, Quinta-feira

Tempo Temperatura Precipitação Vento Pressão Humidade
00:00 +20°C° 0 mm 5 m/s 727 mmHg 57%
01:00 +20°C° 0 mm 5 m/s 726 mmHg 58%
02:00 +19°C° 0 mm 5 m/s 726 mmHg 59%
03:00 +17°C° 0 mm 5 m/s 726 mmHg 60%
04:00 +17°C° 0 mm 5 m/s 726 mmHg 62%
05:00 +17°C° 0 mm 5 m/s 725 mmHg 64%
06:00 +17°C° 0 mm 5 m/s 725 mmHg 67%
07:00 +19°C° 0 mm 5 m/s 726 mmHg 63%
08:00 +20°C° 0 mm 5 m/s 726 mmHg 58%
09:00 +22°C° 0 mm 5 m/s 726 mmHg 54%
10:00 +26°C° 0 mm 5 m/s 726 mmHg 46%
11:00 +29°C° 0 mm 5 m/s 726 mmHg 39%
12:00 +33°C° 0 mm 5 m/s 726 mmHg 31%
13:00 +34°C° 0 mm 5 m/s 726 mmHg 28%
14:00 +35°C° 0 mm 5 m/s 725 mmHg 25%
15:00 +36°C° 0 mm 4 m/s 724 mmHg 22%
16:00 +34°C° 0 mm 3 m/s 724 mmHg 26%
17:00 +31°C° 0 mm 2 m/s 724 mmHg 29%
18:00 +29°C° 0 mm 1 m/s 724 mmHg 33%
19:00 +28°C° 0 mm 1 m/s 724 mmHg 34%
20:00 +27°C° 0 mm 1 m/s 724 mmHg 36%
21:00 +26°C° 0 mm 1 m/s 724 mmHg 37%
22:00 +25°C° 0 mm 1 m/s 724 mmHg 38%
23:00 +25°C° 0 mm 1 m/s 724 mmHg 39%

25 Junho, Sexta-feira

Tempo Temperatura Precipitação Vento Pressão Humidade
00:00 +24°C° 0 mm 1 m/s 725 mmHg 40%
01:00 +24°C° 0 mm 1 m/s 724 mmHg 41%
02:00 +23°C° 0 mm 1 m/s 724 mmHg 42%
03:00 +23°C° 0 mm 1 m/s 724 mmHg 43%
04:00 +22°C° 0 mm 1 m/s 724 mmHg 44%
05:00 +21°C° 0 mm 2 m/s 724 mmHg 44%
06:00 +21°C° 0 mm 3 m/s 724 mmHg 45%
07:00 +22°C° 0 mm 3 m/s 725 mmHg 43%
08:00 +24°C° 0 mm 3 m/s 725 mmHg 41%
09:00 +25°C° 0 mm 3 m/s 726 mmHg 39%
10:00 +28°C° 0 mm 3 m/s 726 mmHg 35%
11:00 +30°C° 0 mm 3 m/s 726 mmHg 31%
12:00 +34°C° 0 mm 2 m/s 726 mmHg 26%
13:00 +34°C° 0 mm 2 m/s 725 mmHg 25%
14:00 +35°C° 0 mm 2 m/s 725 mmHg 23%
15:00 +35°C° 0 mm 1 m/s 724 mmHg 21%
16:00 +33°C° 0 mm 1 m/s 724 mmHg 25%
17:00 +31°C° 0 mm 1 m/s 724 mmHg 28%
18:00 +29°C° 0 mm 1 m/s 724 mmHg 32%
19:00 +28°C° 0 mm 2 m/s 724 mmHg 33%
20:00 +27°C° 0 mm 2 m/s 725 mmHg 35%
21:00 +26°C° 0 mm 2 m/s 725 mmHg 37%
22:00 +25°C° 0 mm 3 m/s 725 mmHg 38%
23:00 +25°C° 0 mm 3 m/s 725 mmHg 38%

26 Junho, Sábado

Tempo Temperatura Precipitação Vento Pressão Humidade
00:00 +25°C° 0 mm 3 m/s 725 mmHg 39%
01:00 +24°C° 0 mm 3 m/s 725 mmHg 41%
02:00 +22°C° 0 mm 3 m/s 725 mmHg 43%
03:00 +22°C° 0 mm 3 m/s 725 mmHg 45%
04:00 +21°C° 0 mm 2 m/s 725 mmHg 45%
05:00 +21°C° 0 mm 2 m/s 725 mmHg 46%
06:00 +20°C° 0 mm 2 m/s 725 mmHg 47%
07:00 +23°C° 0 mm 2 m/s 726 mmHg 44%
08:00 +24°C° 0 mm 3 m/s 727 mmHg 41%
09:00 +26°C° 0 mm 3 m/s 727 mmHg 37%
10:00 +28°C° 0 mm 4 m/s 727 mmHg 33%
11:00 +32°C° 0 mm 4 m/s 727 mmHg 29%
12:00 +34°C° 0 mm 5 m/s 727 mmHg 25%
13:00 +35°C° 0 mm 5 m/s 727 mmHg 23%
14:00 +36°C° 0 mm 5 m/s 726 mmHg 22%
15:00 +36°C° 0 mm 5 m/s 725 mmHg 21%
16:00 +34°C° 0 mm 4 m/s 725 mmHg 24%
17:00 +33°C° 0 mm 3 m/s 725 mmHg 27%
18:00 +30°C° 0 mm 3 m/s 725 mmHg 29%
19:00 +29°C° 0 mm 3 m/s 725 mmHg 30%
20:00 +28°C° 0 mm 3 m/s 725 mmHg 31%
21:00 +28°C° 0 mm 2 m/s 726 mmHg 32%
22:00 +27°C° 0 mm 3 m/s 725 mmHg 33%
23:00 +26°C° 0 mm 3 m/s 725 mmHg 34%

27 Junho, Domingo

Tempo Temperatura Precipitação Vento Pressão Humidade
00:00 +26°C° 0 mm 3 m/s 725 mmHg 35%
01:00 +25°C° 0 mm 2 m/s 725 mmHg 36%
02:00 +25°C° 0 mm 2 m/s 725 mmHg 36%
03:00 +24°C° 0 mm 1 m/s 725 mmHg 37%
04:00 +24°C° 0 mm 1 m/s 725 mmHg 39%
05:00 +23°C° 0 mm 1 m/s 726 mmHg 40%
06:00 +22°C° 0 mm 1 m/s 726 mmHg 41%
07:00 +24°C° 0 mm 2 m/s 726 mmHg 38%
08:00 +25°C° 0 mm 3 m/s 727 mmHg 35%
09:00 +26°C° 0 mm 3 m/s 728 mmHg 32%
10:00 +29°C° 0 mm 4 m/s 728 mmHg 27%
11:00 +32°C° 0 mm 4 m/s 727 mmHg 23%
12:00 +34°C° 0 mm 4 m/s 727 mmHg 18%
13:00 +35°C° 0 mm 4 m/s 727 mmHg 18%
14:00 +36°C° 0 mm 3 m/s 726 mmHg 17%
15:00 +37°C° 0 mm 3 m/s 726 mmHg 16%
16:00 +34°C° 0 mm 3 m/s 726 mmHg 21%
17:00 +31°C° 0 mm 3 m/s 726 mmHg 26%
18:00 +28°C° 0 mm 3 m/s 725 mmHg 31%
19:00 +27°C° 0 mm 4 m/s 726 mmHg 42%
20:00 +26°C° 0 mm 4 m/s 727 mmHg 53%
21:00 +23°C° 0 mm 5 m/s 727 mmHg 63%
22:00 +22°C° 0 mm 5 m/s 727 mmHg 71%
23:00 +21°C° 0 mm 5 m/s 728 mmHg 79%
Mostrar mais

Necessitamos do seu Consentimento

A Meteoprog e os seus Fornecedores de Serviços podem armazenar e aceder a dados pessoais como cookies, identificadores do dispositivo ou outras tecnologias semelhantes existentes no seu dispositivo e processar estes dados para personalizar conteúdos e anúncios, assim como funcionalidades nas redes sociais e análise de tráfego.

  • Armazenar e/ou aceder a informações no seu dispositivo

    Os cookies, identificadores do dispositivo ou outras informações podem ser armazenados ou acedidos no seu dispositivo, para os fins acima indicados.

  • Anúncios e conteúdos personalizados, medição de anúncios e conteúdos, dados sobre o público-alvo e desenvolvimento de produtos

    Os anúncios e os conteúdos podem ser personalizados com base num perfil. Podem ser adicionados dados adicionais para uma maior personalização dos anúncios e dos conteúdos. A eficácia dos anúncios e dos conteúdos pode ser medida. Podem ser obtidas informações sobre o público que visualizou os anúncios e os conteúdos. Estes dados podem ser usados para desenvolver ou melhorar sistemas, softwares ou a experiência do utilizador.

Ao clicar em "Eu concordo”, permitirá o uso de cookies, identificadores do dispositivo e web beacons mencionados ou outras tecnologias semelhantes. As configurações do navegador do seu dispositivo podem ser alteradas.

Para certos fins, podem ser invocados interesses legítimos ao invés de consentimento. Pode ler mais informação sobre este assunto na nossa Política de Privacidade e Cookies.